Temperature
20 20 20 20 20 20 20 19 19 19 19 19 19 19 19 19 19 19 19 19 19 19 19 19 19 19 19 19 19 19 19 19 19 19 19 19 19 19 19 19 19 19 19
21 20 20 20 20 20 20 19 19 19 19 19 19 19 19 19 19 19 19 19 19 19 19 19 19 19 19 19 19 19 19 19 19 19 19 19 19 19 19 19 19 19 19
21 20 20 20 20 20 20 19 19 19 19 19 19 19 19 19 19 19 19 19 19 19 19 19 19 19 19 19 19 19 19 19 19 19 19 19 19 19 19 19 19 19 19
21 20 20 20 20 20 20 19 19 19 19 19 19 19 19 19 19 19 19 19 19 19 19 19 18 18 18 18 18 18 18 18 18 18 18 19 19 19 19 19 19 19 19
20 20 20 20 20 20 19 19 19 19 19 19 19 19 19 19 19 19 19 19 19 19 19 18 18 18 18 18 18 18 18 18 18 18 18 18 18 18 19 19 19 19 19
20 20 20 20 19 19 19 19 19 19 19 19 19 19 19 19 19 19 19 19 19 19 19 18 18 18 18 18 18 18 18 18 18 18 18 18 18 18 18 18 18 19 19
20 20 19 19 19 19 19 19 19 19 19 19 18 19 19 18 18 18 18 18 18 18 18 18 18 18 18 18 18 18 18 18 18 19 19 18 18 18 18 18 18 19 19
20 20 19 19 19 19 19 19 19 19 19 19 19 18 18 18 18 18 18 18 18 18 18 18 18 18 18 18 18 18 18 18 18 18 18 18 18 18 18 18 18 18 18
20 19 19 19 19 19 19 19 19 19 19 19 19 18 18 18 18 18 18 18 18 18 18 17 17 18 18 18 18 18 18 18 18 18 18 18 18 18 18 18 18 18 18
19 19 19 19 19 19 19 19 18 18 18 19 18 18 18 18 18 18 18 18 18 18 18 17 17 17 17 17 17 17 17 17 17 17 18 18 18 18 18 18 18 18 18
19 19 19 19 19 19 19 19 18 18 18 18 18 18 18 18 18 18 18 18 18 18 18 17 17 17 17 17 17 17 17 17 17 17 17 17 18 18 18 18 18 18 18
20 20 19 19 19 19 19 19 18 18 18 18 18 18 18 18 18 18 18 18 18 18 18 17 17 17 17 17 17 17 17 16 17 17 17 17 17 18 18 18 18 18 18
21 20 20 20 20 19 19 19 19 19 18 18 18 18 18 18 18 18 18 18 18 18 17 17 17 17 17 17 17 17 17 17 16 17 17 17 17 17 17 17 17 18 18
21 21 21 20 20 20 19 19 19 19 18 18 18 18 18 18 18 18 18 18 18 17 17 17 17 17 17 17 16 17 17 17 17 17 17 17 17 17 17 17 17 17 18
21 21 21 21 20 20 19 19 19 19 18 18 18 18 18 18 18 18 18 18 17 17 17 17 17 17 17 17 16 16 16 17 17 17 16 17 17 17 17 17 17 17 17
22 21 21 21 20 20 20 20 19 19 18 18 18 18 18 17 18 18 18 18 17 17 17 17 17 17 17 17 16 16 16 16 17 17 17 17 17 17 17 17 17 17 17
23 22 22 21 20 20 20 20 19 19 18 18 18 18 18 17 17 17 18 18 17 17 16 17 17 16 16 16 16 16 16 16 16 16 16 16 16 16 17 17 17 17 17
23 23 22 22 21 20 20 20 19 19 18 18 18 18 18 17 17 17 17 17 17 17 16 16 17 16 16 16 16 16 16 16 16 16 16 16 16 16 16 17 17 17 17
23 23 23 22 22 21 20 20 19 19 18 18 18 18 18 17 17 17 17 17 17 17 17 17 17 16 16 16 16 16 16 16 16 16 16 16 16 17 16 16 17 17 17
23 23 23 23 22 21 20 19 19 19 18 18 18 18 18 17 17 17 17 17 17 17 17 17 17 16 16 16 16 16 16 15 15 16 16 16 16 17 17 17 17 16 16
23 23 22 22 22 21 20 20 19 19 19 18 18 18 17 17 17 17 17 17 17 17 17 17 17 16 16 16 16 15 15 15 15 15 15 16 16 16 17 17 16 16 16
24 23 23 22 22 22 21 20 20 19 19 18 18 17 17 17 17 17 17 17 17 17 17 17 16 16 16 16 16 15 15 15 15 15 15 15 15 16 16 16 16 16 16
24 24 23 23 22 22 21 20 19 19 19 18 18 18 17 17 17 17 17 17 17 17 16 16 16 16 16 16 15 15 15 15 15 15 15 15 15 15 16 16 16 16 16
23 23 22 22 22 21 20 19 19 19 19 19 18 17 17 17 17 17 17 17 16 16 16 16 16 16 16 15 15 15 15 15 15 15 15 15 15 15 15 15 16 15 15
21 20 20 20 20 19 18 18 18 18 18 18 17 17 17 17 17 17 17 17 16 16 16 16 16 15 15 15 15 15 14 15 15 15 15 15 15 15 15 15 15 15 15
18 18 18 19 18 17 17 17 17 18 18 17 17 17 17 17 17 17 17 16 16 16 16 15 15 15 15 15 15 15 15 15 15 15 14 15 15 15 15 15 15 15 15
Wind_Speed
6 8 14 14 13 13 13 13 13 13 13 13 13 14 14 13 12 11 11 10 10 10 9 8 8 8 8 8 8 9 11 11 10 9 8 7 6 6 7 7 6 5 7
9 11 15 15 14 12 12 12 12 13 13 13 13 14 14 13 12 12 11 10 9 9 9 8 8 8 8 8 8 10 11 11 10 9 9 7 7 8 9 8 6 6 9
12 12 15 16 15 13 12 12 12 12 12 13 13 14 13 12 11 11 11 10 10 9 8 8 8 8 8 8 8 9 9 10 10 10 9 8 8 9 9 9 8 9 10
14 13 14 16 15 14 13 13 13 13 13 13 13 13 12 12 11 10 10 10 10 9 9 8 8 8 8 8 7 7 7 8 10 10 8 6 6 8 9 9 9 9 10
11 12 15 17 15 14 13 13 13 13 13 13 14 13 12 11 11 10 10 10 10 10 9 9 9 8 8 9 8 8 8 10 11 10 8 7 5 7 8 8 8 9 9
10 11 14 17 15 14 13 13 13 14 14 14 13 13 12 11 10 9 9 10 10 9 9 9 10 9 10 10 10 9 10 11 10 9 7 6 5 6 7 6 6 7 8
10 10 13 17 16 14 13 13 13 14 14 14 13 13 12 11 10 9 9 10 10 9 8 9 9 10 10 10 10 9 11 11 9 7 6 5 4 6 7 6 5 6 7
11 10 11 16 16 15 14 14 14 14 14 14 14 13 13 11 11 10 9 8 8 7 7 7 9 10 10 9 9 9 10 10 8 7 6 4 4 5 6 5 5 6 7
8 7 7 11 14 15 14 15 15 15 14 14 14 13 13 11 11 10 9 7 7 6 5 6 7 9 9 9 8 8 9 10 8 6 5 4 4 4 5 5 5 5 6
8 8 6 8 10 11 13 15 15 15 15 14 14 13 13 12 11 10 8 7 6 6 5 5 6 8 9 9 9 9 9 8 7 6 5 3 3 3 4 5 4 5 5
7 6 7 6 7 9 10 13 14 15 15 14 13 13 12 9 9 8 8 7 6 5 4 4 5 7 9 10 10 10 9 7 5 5 4 3 2 1 3 3 3 3 4
9 8 7 7 6 7 9 9 10 11 12 11 11 11 10 8 7 7 7 7 6 4 3 3 3 6 7 8 9 9 7 6 5 5 5 3 1 1 2 2 2 3 3
9 10 10 9 7 7 5 7 8 9 10 10 11 11 10 8 6 5 4 3 2 4 5 5 5 4 4 5 7 7 6 5 5 6 6 3 2 3 3 3 3 4 4
8 10 10 10 8 7 6 5 6 6 7 7 10 12 9 5 4 4 4 3 3 4 3 3 3 1 3 5 6 6 5 4 4 5 7 5 1 3 4 5 4 4 4
10 11 10 10 9 7 6 4 4 5 6 9 10 11 11 5 4 4 4 4 4 4 3 2 2 3 5 6 6 5 4 5 5 6 7 8 6 1 3 5 6 4 3
12 12 10 10 10 9 7 7 6 5 7 9 9 11 12 9 6 4 4 4 4 5 4 3 3 3 3 4 4 4 3 3 4 6 8 9 9 6 2 3 5 5 4
13 12 12 12 10 10 9 8 6 7 8 7 8 12 12 11 9 6 4 4 5 6 5 3 4 3 3 3 3 3 2 2 3 5 7 8 9 9 5 4 6 6 6
11 12 14 13 12 11 9 7 5 6 7 7 9 10 12 12 11 7 5 5 6 7 5 3 3 3 2 2 2 1 1 1 1 3 5 7 8 9 10 9 8 7 7
13 12 14 13 14 12 10 7 5 5 5 6 8 9 11 12 12 8 5 4 6 5 4 4 3 3 3 3 2 1 1 1 0 1 3 4 6 8 9 11 12 11 8
12 11 13 13 12 11 8 5 4 4 4 4 6 8 11 11 12 9 5 6 6 5 5 5 4 2 3 3 3 2 2 1 1 1 1 2 3 5 7 7 8 10 10
12 12 14 13 12 11 7 6 5 4 4 4 4 6 9 10 11 8 4 5 6 6 7 7 4 4 2 3 3 2 3 2 1 1 1 1 1 2 3 4 5 5 7
17 15 14 13 12 12 8 5 3 3 3 2 2 4 7 9 9 8 7 6 7 6 6 7 5 4 3 3 4 3 1 3 2 1 1 1 2 2 0 2 3 3 4
16 15 12 12 9 7 6 4 4 4 3 2 2 3 4 7 8 7 7 6 7 7 7 8 7 7 5 3 2 4 4 4 2 3 2 1 2 2 2 2 2 2 1
8 9 11 11 11 8 6 3 2 3 4 5 3 3 4 6 7 8 7 6 7 6 7 8 7 5 6 5 3 2 2 3 3 1 3 2 2 4 4 3 4 4 4
9 11 12 13 13 10 5 2 3 3 2 2 2 4 4 4 5 6 7 6 7 6 7 8 8 8 6 6 5 4 3 1 2 2 2 3 2 3 4 4 5 6 7
11 11 11 14 13 9 3 2 5 5 5 4 4 4 3 3 3 5 5 5 5 5 5 6 7 8 8 6 5 5 5 4 4 4 3 3 3 3 3 4 4 7 10
Wind_Direction
174 184 163 149 144 143 143 141 135 130 125 120 118 118 118 115 113 111 109 106 103 101 105 106 105 106 106 106 113 126 133 135 135 136 138 139 143 148 143 123 109 115 124
155 172 162 154 149 147 146 143 140 136 131 127 124 122 121 118 116 116 117 115 110 104 105 110 106 103 100 98 104 117 128 133 130 123 121 123 126 129 126 118 111 113 115
150 166 162 158 155 155 152 147 143 140 138 135 132 128 125 123 121 120 119 117 114 108 104 104 103 100 95 93 98 108 120 129 126 113 102 100 114 120 118 112 110 109 110
154 163 162 163 160 159 157 153 149 146 143 141 140 137 133 132 130 126 122 117 112 106 102 98 97 95 91 89 94 106 115 120 120 109 92 84 102 118 119 118 118 116 112
156 161 167 167 166 164 161 155 153 150 147 145 144 141 139 138 134 131 129 123 114 105 98 91 87 86 81 74 77 95 112 117 113 104 92 81 89 119 119 122 123 123 120
158 162 174 172 173 169 164 159 155 152 149 148 146 142 141 139 135 133 133 129 121 112 101 89 81 75 66 61 69 88 102 105 104 103 97 87 85 115 117 120 131 134 131
160 166 180 180 179 174 169 165 162 157 153 151 151 148 146 143 138 136 133 132 126 119 106 91 81 73 63 55 61 85 97 99 98 94 91 86 96 116 120 125 137 140 138
164 166 182 187 183 177 173 170 168 164 160 157 155 153 151 149 145 143 140 137 132 123 109 91 79 74 65 53 55 81 97 90 88 78 74 71 100 118 124 127 133 143 145
158 158 178 186 184 181 176 173 173 169 166 163 160 159 156 155 153 152 150 147 144 138 122 97 81 73 64 55 61 84 97 88 82 69 60 58 99 113 119 121 120 133 144
156 161 160 169 175 176 176 177 176 172 170 167 163 163 161 162 162 160 158 157 155 152 136 109 91 78 63 59 76 83 90 76 69 59 43 39 75 107 119 116 112 122 133
162 158 156 157 166 168 170 179 176 172 171 168 165 164 162 160 161 160 161 165 162 154 134 111 94 82 71 69 84 84 77 66 55 40 16 3 31 98 119 129 130 131 135
179 176 166 164 164 165 172 171 163 163 166 162 160 157 153 153 156 158 174 177 171 157 122 97 76 71 74 77 86 85 71 48 34 17 353 334 281 205 157 160 170 174 161
185 184 181 176 170 169 164 157 155 156 155 156 157 155 152 147 153 158 171 186 140 110 66 40 32 41 72 88 95 88 74 50 23 3 342 318 254 214 194 192 190 187 185
179 190 186 184 177 174 163 160 159 158 158 157 159 159 154 149 155 165 171 166 113 100 97 54 19 15 145 130 116 103 88 69 36 10 352 355 299 217 193 185 176 180 199
190 193 188 182 177 171 162 161 164 164 165 164 164 169 168 162 168 175 178 174 151 137 144 120 83 117 132 133 126 116 98 75 55 37 18 15 17 23 187 181 169 177 198
198 195 186 183 178 171 173 174 175 167 164 166 175 180 181 178 174 173 178 180 170 162 169 148 119 117 122 131 124 121 102 71 55 47 37 27 23 30 78 142 148 144 139
201 193 186 186 178 177 181 182 177 174 168 174 185 189 191 189 182 178 180 189 180 165 165 148 119 109 110 118 131 137 127 71 42 36 38 38 33 30 49 110 122 125 125
200 193 190 189 181 183 184 183 174 176 176 182 185 191 199 200 188 180 186 198 179 159 160 163 149 137 145 147 148 151 152 152 47 27 36 43 45 40 43 72 96 109 121
207 196 190 187 181 185 184 180 176 172 182 185 184 190 201 204 196 188 193 194 173 157 164 181 166 154 164 165 151 101 89 169 86 33 31 34 48 52 51 58 70 76 93
209 197 192 187 179 174 168 160 162 178 194 186 189 195 196 198 194 190 191 188 173 164 174 179 168 150 147 150 118 65 25 16 60 47 7 1 34 56 60 58 60 62 68
205 195 191 186 176 168 164 167 173 192 193 198 200 196 193 190 185 179 176 176 174 182 183 170 153 156 144 134 104 47 359 20 51 21 18 319 319 29 65 62 53 54 58
204 198 190 187 178 176 177 162 151 146 162 177 177 184 191 187 183 181 175 176 177 174 167 165 154 154 160 158 138 122 348 331 313 329 348 244 257 285 255 97 81 59 55
203 192 183 172 159 154 135 115 87 81 81 124 181 188 184 181 179 175 174 173 178 174 178 178 172 166 172 183 175 153 163 215 272 306 290 258 241 248 256 227 176 144 117
187 155 140 133 117 102 102 130 172 186 193 205 198 187 169 173 176 178 175 176 177 177 180 186 183 175 165 177 189 190 156 151 153 284 303 285 249 237 237 232 213 206 199
95 105 111 111 103 95 96 143 214 223 202 182 179 181 172 167 171 170 171 174 180 184 186 183 183 189 188 184 177 166 155 131 128 161 260 286 288 253 234 229 221 217 216
77 88 97 97 91 92 100 182 211 207 192 182 195 188 171 151 160 172 173 178 185 188 193 193 194 197 202 199 195 187 175 168 176 170 201 244 258 269 243 230 222 220 219
Height
1509 1512 1514 1517 1519 1521 1523 1524 1525 1527 1528 1529 1530 1531 1532 1533 1534 1535 1536 1537 1537 1538 1538 1539 1539 1540 1541 1542 1543 1544 1545 1546 1547 1547 1548 1549 1549 1550 1550 1550 1549 1549 1549
1509 1512 1515 1517 1520 1522 1524 1525 1527 1528 1529 1530 1531 1532 1533 1534 1535 1536 1537 1538 1538 1539 1539 1540 1540 1541 1542 1543 1543 1544 1546 1547 1548 1548 1549 1550 1550 1551 1551 1551 1551 1550 1550
1510 1512 1515 1518 1520 1522 1524 1526 1527 1528 1530 1531 1532 1533 1534 1536 1537 1537 1538 1539 1539 1540 1540 1541 1541 1542 1543 1544 1544 1546 1547 1548 1549 1549 1550 1551 1552 1552 1552 1552 1552 1552 1552
1511 1513 1515 1518 1520 1522 1524 1526 1528 1529 1530 1531 1533 1534 1535 1537 1537 1538 1539 1540 1540 1541 1541 1541 1542 1543 1544 1544 1545 1547 1548 1549 1550 1550 1551 1552 1552 1553 1553 1553 1553 1553 1553
1511 1514 1516 1518 1521 1523 1524 1526 1528 1529 1531 1532 1534 1535 1536 1537 1538 1539 1540 1540 1541 1541 1542 1542 1542 1543 1544 1545 1546 1547 1549 1550 1551 1552 1552 1553 1553 1554 1554 1554 1554 1554 1554
1512 1514 1517 1519 1521 1523 1524 1526 1528 1529 1531 1533 1534 1535 1537 1538 1539 1540 1540 1541 1541 1542 1543 1543 1544 1544 1545 1546 1547 1548 1549 1550 1551 1552 1553 1554 1554 1555 1555 1555 1555 1555 1555
1512 1515 1517 1519 1521 1523 1525 1526 1528 1530 1531 1533 1534 1536 1537 1538 1539 1540 1541 1541 1542 1543 1544 1544 1545 1546 1547 1548 1549 1550 1550 1551 1552 1553 1554 1554 1555 1555 1555 1555 1555 1556 1556
1513 1515 1517 1519 1521 1522 1524 1526 1528 1530 1532 1533 1535 1536 1537 1539 1540 1540 1541 1542 1543 1544 1545 1545 1546 1547 1548 1549 1550 1551 1552 1552 1553 1553 1554 1555 1555 1555 1555 1556 1556 1556 1556
1514 1515 1517 1518 1520 1522 1524 1526 1528 1530 1532 1533 1535 1536 1538 1539 1540 1541 1542 1543 1544 1545 1546 1546 1547 1548 1549 1550 1552 1552 1553 1553 1554 1554 1554 1555 1555 1555 1555 1555 1556 1556 1556
1513 1515 1517 1518 1520 1522 1524 1526 1528 1530 1532 1533 1535 1537 1538 1540 1541 1541 1542 1543 1545 1546 1546 1547 1548 1549 1550 1551 1552 1553 1554 1554 1554 1554 1554 1555 1555 1555 1555 1555 1555 1556 1556
1513 1514 1516 1517 1519 1521 1523 1525 1528 1530 1532 1533 1535 1537 1538 1540 1541 1542 1543 1544 1545 1546 1547 1548 1548 1549 1550 1552 1553 1554 1554 1554 1554 1554 1554 1554 1554 1554 1554 1555 1555 1555 1556
1511 1513 1515 1516 1518 1520 1522 1525 1527 1529 1531 1533 1535 1537 1538 1540 1541 1542 1543 1544 1546 1547 1548 1548 1549 1550 1551 1552 1553 1554 1554 1554 1554 1553 1553 1553 1553 1553 1553 1554 1554 1555 1555
1511 1512 1514 1515 1517 1519 1521 1523 1526 1528 1530 1532 1535 1537 1538 1540 1541 1542 1543 1544 1546 1547 1548 1549 1550 1551 1552 1553 1553 1553 1554 1553 1553 1552 1552 1552 1552 1552 1552 1553 1553 1554 1555
1510 1512 1514 1515 1516 1518 1520 1522 1525 1527 1529 1531 1534 1536 1538 1539 1541 1542 1543 1544 1545 1547 1548 1550 1551 1552 1553 1553 1553 1553 1553 1552 1552 1552 1552 1551 1551 1551 1551 1552 1553 1553 1554
1509 1511 1513 1515 1516 1517 1519 1521 1524 1526 1528 1531 1533 1535 1537 1539 1540 1541 1542 1544 1545 1547 1548 1550 1551 1552 1553 1554 1554 1553 1552 1552 1551 1551 1551 1551 1551 1551 1551 1552 1552 1553 1553
1507 1510 1512 1514 1515 1517 1519 1520 1523 1525 1527 1529 1532 1534 1536 1538 1540 1541 1542 1543 1545 1547 1548 1550 1551 1552 1553 1554 1554 1553 1553 1552 1551 1551 1551 1551 1551 1551 1551 1551 1551 1552 1553
1504 1507 1510 1512 1514 1516 1518 1520 1522 1524 1526 1528 1530 1533 1535 1537 1539 1540 1541 1543 1545 1547 1548 1549 1551 1551 1552 1553 1553 1553 1552 1552 1552 1552 1551 1551 1551 1551 1551 1551 1551 1551 1552
1502 1505 1507 1510 1512 1514 1516 1519 1521 1522 1524 1526 1528 1531 1533 1535 1537 1539 1540 1542 1545 1546 1547 1549 1550 1551 1552 1552 1552 1552 1552 1552 1552 1552 1552 1552 1551 1552 1552 1551 1551 1552 1552
1500 1502 1504 1507 1509 1512 1515 1517 1520 1521 1523 1525 1527 1529 1531 1533 1535 1537 1539 1541 1543 1545 1546 1547 1548 1549 1550 1551 1552 1552 1552 1552 1552 1552 1552 1552 1552 1552 1553 1553 1552 1552 1553
1497 1500 1502 1505 1507 1510 1513 1515 1517 1520 1522 1523 1525 1527 1529 1531 1533 1534 1536 1539 1540 1542 1544 1545 1547 1548 1549 1550 1550 1551 1551 1551 1551 1551 1552 1552 1552 1553 1553 1554 1553 1553 1554
1493 1495 1498 1501 1503 1506 1509 1512 1514 1517 1520 1522 1524 1526 1527 1528 1530 1531 1533 1535 1537 1539 1541 1543 1544 1545 1547 1548 1549 1549 1550 1550 1550 1550 1551 1552 1552 1552 1553 1553 1554 1554 1554
1485 1488 1492 1496 1500 1503 1506 1510 1513 1515 1518 1521 1523 1524 1525 1526 1527 1529 1530 1532 1534 1536 1537 1539 1541 1542 1544 1545 1546 1547 1548 1549 1548 1548 1549 1550 1551 1552 1552 1553 1553 1553 1554
1477 1481 1485 1490 1496 1501 1505 1509 1512 1514 1517 1519 1520 1521 1523 1524 1525 1527 1528 1529 1531 1532 1534 1535 1537 1539 1541 1542 1544 1545 1545 1545 1546 1546 1547 1548 1549 1550 1551 1552 1552 1553 1553
1472 1476 1480 1484 1491 1498 1503 1508 1511 1513 1514 1516 1518 1519 1520 1522 1523 1524 1525 1526 1527 1528 1530 1531 1533 1534 1536 1538 1539 1540 1542 1543 1544 1544 1545 1546 1547 1548 1549 1550 1551 1552 1552
1470 1472 1475 1480 1486 1494 1501 1505 1509 1511 1512 1514 1515 1516 1517 1519 1521 1522 1522 1523 1524 1525 1526 1527 1528 1530 1531 1533 1534 1535 1537 1538 1540 1542 1543 1544 1545 1545 1547 1548 1549 1550 1551
1470 1472 1474 1477 1483 1489 1497 1503 1507 1509 1511 1512 1513 1513 1515 1516 1518 1519 1520 1521 1521 1521 1522 1523 1524 1525 1527 1528 1529 1530 1531 1533 1535 1537 1539 1541 1543 1544 1544 1545 1547 1548 1549